#timestamp,LO_Frequency,Hit 
1500483615.1,286045571.7,N
1500483635.9,286045572.1,N
1500483655.7,286045571.1,N
1500483675.6,286045570.9,N
1500483695.4,286045571.0,N
1500483715.2,286045571.3,N
1500483735.1,286045571.0,N
1500483736.0,286045571.0,N
1500483755.8,286045571.3,N
1500483775.6,286045573.2,N
1500483795.5,286045573.5,N
1500483815.3,286045571.0,N
1500483835.2,286045571.4,N
1500483855.9,286045570.9,N
1500483875.7,286045571.2,N
1500483895.6,286045571.1,N
1500483915.4,286045572.7,N
1500483935.2,286045572.6,N
1500483955.1,286045573.4,N
1500483956.0,286045573.4,N
1500483975.8,286045573.5,N
1500483995.7,286045573.8,N
1500484015.5,286045572.9,N
1500484035.3,286045573.3,N
1500484055.2,286045573.5,N
1500484075.0,286045572.7,N
1500484075.9,286045572.7,N
1500484095.8,286045573.4,N
1500484115.6,286045573.0,N
1500484135.4,286045575.1,N
1500484155.3,286045575.6,N
1500484175.1,286045575.5,N
1500484195.8,286045574.4,N
1500484215.7,286045574.8,N
1500484235.5,286045574.6,N
1500484255.4,286045574.1,N
1500484275.2,286045576.4,N
1500484295.0,286045576.4,N
1500484295.9,286045576.4,N
1500484315.8,286045576.6,N
1500484335.6,286045574.2,N
1500484355.4,286045576.9,N
1500484375.3,286045574.2,N
1500484395.1,286045574.6,N
1500484415.9,286045576.8,N
1500484435.7,286045576.5,N
1500484455.5,286045577.2,N
1500484475.4,286045576.7,N
1500484495.2,286045576.8,N
1500484515.1,286045577.0,N
1500484516.0,286045577.0,N
1500484535.8,286045576.5,N
1500484555.6,286045576.5,N
1500484575.5,286045578.7,N
1500484595.3,286045575.7,N
1500484615.1,286045576.1,N
1500484635.9,286045576.2,N
1500484655.7,286045578.4,N
1500484675.6,286045575.8,N
1500484695.4,286045578.6,N
1500484715.2,286045575.7,N
1500484735.1,286045578.5,N
1500484736.0,286045578.5,N
1500484755.8,286045578.3,N
1500484775.6,286045576.1,N
1500484795.5,286045578.2,N
1500484815.3,286045578.1,N
1500484835.2,286045578.3,N
1500484855.9,286045578.6,N
1500484875.7,286045579.6,N
1500484895.6,286045580.3,N
1500484915.4,286045578.5,N
1500484935.2,286045578.7,N
1500484955.1,286045578.3,N
1500484956.0,286045578.3,N
1500484975.8,286045575.7,N
1500484995.7,286045578.2,N
1500485015.5,286045578.0,N
1500485035.3,286045578.5,N
1500485055.2,286045578.2,N
1500485075.0,286045577.8,N
1500485075.9,286045577.8,N
1500485095.7,286045579.9,N
1500485115.6,286045577.8,N
1500485135.4,286045579.9,N
1500485155.3,286045577.6,N
1500485175.1,286045579.9,N
1500485176.0,286045579.9,N
1500485195.8,286045577.5,N
1500485215.7,286045580.3,N
1500485235.5,286045579.8,N
1500485255.3,286045580.0,N
1500485275.2,286045579.1,N
1500485295.0,286045580.2,N
1500485295.9,286045580.2,N
1500485315.8,286045579.9,N
1500485335.6,286045579.1,N
1500485355.4,286045581.8,N
1500485375.3,286045581.1,N
1500485395.1,286045581.5,N
1500485415.9,286045579.7,N
1500485435.7,286045579.4,N
1500485455.5,286045579.3,N
1500485475.4,286045579.5,N
1500485495.2,286045579.8,N
1500485515.0,286045579.2,N
1500485515.9,286045579.2,N
1500485535.8,286045581.5,N
1500485555.6,286045583.6,N
1500485575.5,286045583.3,N
1500485595.3,286045580.9,N
1500485615.1,286045581.2,N
1500485635.9,286045583.2,N
1500485655.7,286045580.7,N
1500485675.5,286045583.3,N
1500485695.4,286045582.9,N
1500485715.2,286045580.5,N
1500485735.1,286045582.8,N
1500485736.0,286045582.8,N
1500485755.8,286045580.5,N
1500485775.6,286045583.3,N
1500485795.5,286045583.4,N
1500485815.3,286045583.6,N
1500485835.1,286045582.6,N
1500485855.9,286045582.2,N
1500485875.7,286045582.7,N
1500485895.6,286045585.2,N
1500485915.4,286045585.2,N
1500485935.2,286045585.1,N
1500485955.1,286045582.4,N
1500485956.0,286045582.4,N
1500485975.8,286045582.3,N
1500485995.6,286045582.6,N
1500486015.5,286045585.2,N
1500486035.3,286045582.8,N
1500486055.2,286045585.1,N
1500486075.9,286045582.6,N
1500486095.7,286045584.3,N
1500486115.6,286045585.1,N
1500486135.4,286045582.1,N
1500486155.3,286045582.5,N
1500486175.1,286045584.6,N
1500486176.0,286045584.6,N
1500486195.8,286045584.4,N
1500486215.7,286045584.0,N
1500486235.5,286045584.7,N
1500486255.3,286045584.4,N
1500486275.2,286045584.2,N
1500486295.0,286045583.9,N
1500486295.9,286045583.9,N
1500486315.8,286045584.5,N
1500486335.6,286045586.6,N
1500486355.4,286045584.8,N
1500486375.3,286045584.0,N
1500486395.1,286045583.8,N
1500486415.9,286045584.9,N
1500486435.7,286045586.4,N
1500486455.5,286045586.2,N
1500486475.4,286045586.4,N
1500486495.2,286045585.6,N
1500486515.0,286045586.4,N
1500486515.9,286045586.4,N
1500486535.8,286045586.1,N
1500486555.6,286045586.1,N
1500486575.5,286045586.6,N
1500486595.3,286045588.3,N
1500486615.1,286045586.0,N
1500486635.9,286045588.3,N
1500486655.7,286045585.6,N
1500486675.6,286045588.3,N
1500486695.4,286045587.9,N
1500486715.2,286045585.7,N
1500486735.1,286045585.4,N
1500486736.0,286045585.4,N
1500486755.8,286045588.1,N
1500486775.6,286045588.2,N
1500486795.5,286045585.8,N
1500486815.3,286045586.0,N
1500486835.2,286045586.0,N
1500486855.9,286045585.8,N
1500486875.7,286045586.2,N
1500486895.6,286045584.2,N
1500486915.4,286045586.0,N
1500486935.2,286045588.0,N
1500486955.1,286045588.1,N
1500486956.0,286045588.1,N
1500486975.8,286045587.6,N
1500486995.7,286045588.0,N
1500487015.5,286045588.1,N
1500487035.3,286045587.8,N
1500487055.2,286045588.0,N
1500487075.0,286045588.0,N
1500487075.9,286045588.0,N
1500487095.7,286045587.9,N
1500487115.6,286045588.2,N
1500487135.4,286045587.5,N
1500487155.3,286045588.0,N
1500487175.1,286045588.4,N
1500487176.0,286045588.4,N
1500487195.8,286045588.0,N
